Starlink 11156

operational
NORAD ID: 61056 Int'l Des: 2024-164 Owner: SPXS Country: US Constellation: starlink
LEOCIRCULAR

Starlink 11156について

説明を読み込み中...

リアルタイム位置

3D地球を読み込み中...

次回通過

高度履歴

Altitude vs Time

uPlot chart will show altitude changes over time

軌道要素

1 61056U 24164G 25259.23807090 -.00001762 00000-0 -96903-5 0 9997
2 61056 53.1590 90.9335 0001126 79.3165 280.7980 15.69697254 58026
Epoch: Sep 16, 2025 • Age: 15 hours

現在のステータス

高度 360.5 km
速度 7.69 km/s
衛星直下点 2.36°N, 33.09°W
打ち上げ日 Sep 13, 2024
運用期間 1 years
タイプ internet

技術仕様

分類 Payload
質量 960.00 kg
乾燥質量 910.00 kg
総質量 960.00 kg
長さ 0.30 m
直径 4.10 m
スパン 29.00 m
形状 Box + pan
製造者 SPXS
バスタイプ Starlink V2MD
フェーズステータス In Orbit
所有者/国 SPXS/US

大規模コンステレーション

Loading constellations...